Time,TemperatureF,DewpointF,PressureIn,WindDirection,WindDirectionDegrees,WindSpeedMPH,WindSpeedGustMPH,Humidity,HourlyPrecipIn,Conditions,Clouds,dailyrainin,SoftwareType,DateUTC
2013-04-09 00:02:00,13.3,9.4,30.26,NNE,22,6.4,8.1,84,0.00,-SN,,0.00,WeatherDisplay:10.37,2013-04-09 06:02:00,
2013-04-09 00:07:00,13.3,9.4,30.27,WNW,292,5.9,6.9,84,0.00,-SN,,0.00,WeatherDisplay:10.37,2013-04-09 06:07:00,
2013-04-09 00:12:00,13.3,9.4,30.27,NNE,22,5.0,7.3,84,0.00,-SN,,0.00,WeatherDisplay:10.37,2013-04-09 06:12:00,
2013-04-09 00:18:00,13.3,9.4,30.26,NE,45,5.7,6.8,84,0.00,-SN,,0.00,WeatherDisplay:10.37,2013-04-09 06:18:00,
2013-04-09 00:23:00,13.3,9.1,30.26,North,360,7.9,10.4,83,0.00,-SN,,0.00,WeatherDisplay:10.37,2013-04-09 06:23:00,
2013-04-09 00:28:00,13.3,8.8,30.26,NNW,338,5.9,8.1,82,0.00,-SN,,0.00,WeatherDisplay:10.37,2013-04-09 06:28:00,
2013-04-09 00:33:00,13.3,8.8,30.26,NNW,338,8.3,10.4,82,0.00,-SN,,0.00,WeatherDisplay:10.37,2013-04-09 06:33:00,
2013-04-09 00:38:00,13.3,8.8,30.26,NNW,338,8.3,8.3,82,0.00,-SN,,0.00,WeatherDisplay:10.37,2013-04-09 06:38:00,
2013-04-09 00:43:00,13.3,8.8,30.26,WNW,292,6.1,10.4,82,0.00,-SN,,0.00,WeatherDisplay:10.37,2013-04-09 06:43:00,
2013-04-09 00:48:00,13.1,8.6,30.26,WNW,292,5.7,8.1,82,0.00,-SN,,0.00,WeatherDisplay:10.37,2013-04-09 06:48:00,
2013-04-09 00:53:00,13.1,8.6,30.27,NNW,338,7.4,10.4,82,0.00,-SN,,0.00,WeatherDisplay:10.37,2013-04-09 06:53:00,
2013-04-09 00:58:00,13.1,8.6,30.27,WNW,292,5.2,6.8,82,0.00,-SN,,0.00,WeatherDisplay:10.37,2013-04-09 06:58:00,
2013-04-09 01:03:00,13.1,8.6,30.27,NW,315,5.5,6.8,82,0.00,SCT,,0.00,WeatherDisplay:10.37,2013-04-09 07:03:00,
2013-04-09 01:08:00,13.1,8.6,30.29,NE,45,5.9,6.9,82,0.00,SCT,,0.00,WeatherDisplay:10.37,2013-04-09 07:08:00,
2013-04-09 01:13:00,13.1,8.6,30.29,NNW,338,3.7,4.2,82,0.00,BKN,,0.00,WeatherDisplay:10.37,2013-04-09 07:13:00,
2013-04-09 01:18:00,12.9,8.4,30.30,NNE,22,3.6,4.6,82,0.00,BKN,,0.00,WeatherDisplay:10.37,2013-04-09 07:18:00,
2013-04-09 01:23:00,12.7,8.2,30.30,NE,45,5.6,7.8,82,0.00,BKN,,0.00,WeatherDisplay:10.37,2013-04-09 07:23:00,
2013-04-09 01:28:00,12.6,8.1,30.28,WNW,292,3.6,4.6,82,0.00,BKN,,0.00,WeatherDisplay:10.37,2013-04-09 07:28:00,
2013-04-09 01:33:00,12.4,8.2,30.28,West,270,4.5,4.6,83,0.00,BKN,,0.00,WeatherDisplay:10.37,2013-04-09 07:33:00,
2013-04-09 01:38:00,12.2,8.0,30.28,West,270,3.2,4.6,83,0.00,BKN,,0.00,WeatherDisplay:10.37,2013-04-09 07:38:00,
2013-04-09 01:43:00,12.0,8.1,30.29,NNE,22,2.5,4.6,84,0.00,BKN,,0.00,WeatherDisplay:10.37,2013-04-09 07:43:00,
2013-04-09 01:48:00,11.8,7.9,30.29,North,360,3.8,4.7,84,0.00,BKN,,0.00,WeatherDisplay:10.37,2013-04-09 07:48:00,
2013-04-09 01:53:00,11.7,7.8,30.29,WNW,292,3.6,3.7,84,0.00,BKN,,0.00,WeatherDisplay:10.37,2013-04-09 07:53:00,
2013-04-09 01:58:00,11.3,7.7,30.29,North,360,2.6,4.6,85,0.00,BKN,,0.00,WeatherDisplay:10.37,2013-04-09 07:58:00,
2013-04-09 02:03:00,11.3,7.7,30.29,NW,315,4.0,6.9,85,0.00,SCT,,0.00,WeatherDisplay:10.37,2013-04-09 08:03:00,
2013-04-09 02:08:00,10.9,7.3,30.28,ENE,68,5.3,7.8,85,0.00,SCT,,0.00,WeatherDisplay:10.37,2013-04-09 08:08:00,
2013-04-09 02:13:00,10.9,7.0,30.28,NE,45,4.0,6.9,84,0.00,BKN,,0.00,WeatherDisplay:10.37,2013-04-09 08:13:00,
2013-04-09 02:18:00,10.8,6.9,30.27,NNW,338,4.1,5.8,84,0.00,BKN,,0.00,WeatherDisplay:10.37,2013-04-09 08:18:00,
2013-04-09 02:23:00,10.8,6.9,30.27,NW,315,5.7,5.8,84,0.00,SCT,,0.00,WeatherDisplay:10.37,2013-04-09 08:23:00,
2013-04-09 02:28:00,10.9,7.0,30.27,NNW,338,5.4,10.4,84,0.00,SCT,,0.00,WeatherDisplay:10.37,2013-04-09 08:28:00,
2013-04-09 02:33:00,10.8,6.9,30.27,North,360,3.4,8.1,84,0.00,BKN,,0.00,WeatherDisplay:10.37,2013-04-09 08:33:00,
2013-04-09 02:38:00,10.6,7.0,30.27,NNW,338,6.7,8.1,85,0.00,BKN,,0.00,WeatherDisplay:10.37,2013-04-09 08:38:00,
2013-04-09 02:43:00,10.6,7.0,30.26,North,360,4.5,5.8,85,0.00,BKN,,0.00,WeatherDisplay:10.37,2013-04-09 08:43:00,
2013-04-09 02:48:00,10.4,7.0,30.26,NNW,338,4.1,4.6,86,0.00,BKN,,0.00,WeatherDisplay:10.37,2013-04-09 08:48:00,
2013-04-09 02:53:00,10.4,7.0,30.26,SSW,202,4.4,5.8,86,0.00,BKN,,0.00,WeatherDisplay:10.37,2013-04-09 08:53:00,
2013-04-09 02:58:00,10.2,6.8,30.26,North,360,4.3,5.8,86,0.00,BKN,,0.00,WeatherDisplay:10.37,2013-04-09 08:58:00,
2013-04-09 03:03:00,10.0,6.9,30.26,WNW,292,1.9,2.7,87,0.00,BKN,,0.00,WeatherDisplay:10.37,2013-04-09 09:03:00,
2013-04-09 03:08:00,9.7,6.6,30.27,NNW,338,4.1,5.8,87,0.00,BKN,,0.00,WeatherDisplay:10.37,2013-04-09 09:08:00,
2013-04-09 03:13:00,9.3,6.2,30.27,East,90,3.3,3.5,87,0.00,-SN,,0.00,WeatherDisplay:10.37,2013-04-09 09:13:00,
2013-04-09 03:18:00,9.1,6.3,30.27,North,360,2.8,4.6,88,0.00,-SN,,0.00,WeatherDisplay:10.37,2013-04-09 09:18:00,
2013-04-09 03:23:00,9.1,6.3,30.27,NW,315,2.1,3.2,88,0.00,-SN,,0.00,WeatherDisplay:10.37,2013-04-09 09:23:00,
2013-04-09 03:28:00,9.0,6.2,30.28,NW,315,2.9,3.5,88,0.00,-SN,,0.00,WeatherDisplay:10.37,2013-04-09 09:28:00,
2013-04-09 03:33:00,9.0,6.4,30.28,WSW,248,2.4,2.7,89,0.00,-SN,,0.00,WeatherDisplay:10.37,2013-04-09 09:33:00,
2013-04-09 03:38:00,9.0,6.4,30.28,WNW,292,2.3,2.7,89,0.00,-SN,,0.00,WeatherDisplay:10.37,2013-04-09 09:38:00,
2013-04-09 03:43:00,8.8,6.2,30.28,West,270,0.9,3.7,89,0.00,-SN,,0.00,WeatherDisplay:10.37,2013-04-09 09:43:00,
2013-04-09 03:48:00,8.6,6.0,30.28,West,270,2.8,3.5,89,0.00,-SN,,0.00,WeatherDisplay:10.37,2013-04-09 09:48:00,
2013-04-09 03:53:00,8.6,6.0,30.28,West,270,2.5,3.5,89,0.00,SCT,,0.00,WeatherDisplay:10.37,2013-04-09 09:53:00,
2013-04-09 03:58:00,9.0,6.4,30.28,West,270,2.0,3.5,89,0.00,SCT,,0.00,WeatherDisplay:10.37,2013-04-09 09:58:00,
2013-04-09 04:03:00,8.6,5.8,30.29,WSW,248,3.0,3.5,88,0.00,SCT,,0.00,WeatherDisplay:10.37,2013-04-09 10:03:00,
2013-04-09 04:08:00,8.6,5.8,30.29,WNW,292,3.2,4.6,88,0.00,SCT,,0.00,WeatherDisplay:10.37,2013-04-09 10:08:00,
2013-04-09 04:13:00,8.6,5.8,30.29,WSW,248,2.5,2.5,88,0.00,SCT,,0.00,WeatherDisplay:10.37,2013-04-09 10:13:00,
2013-04-09 04:19:00,8.6,5.8,30.29,West,270,3.6,4.6,88,0.00,SCT,,0.00,WeatherDisplay:10.37,2013-04-09 10:19:00,
2013-04-09 04:24:00,8.6,5.8,30.29,ESE,112,3.1,4.6,88,0.00,SCT,,0.00,WeatherDisplay:10.37,2013-04-09 10:24:00,
2013-04-09 04:30:00,8.6,5.8,30.30,NW,315,3.4,5.8,88,0.00,SCT,,0.00,WeatherDisplay:10.37,2013-04-09 10:30:00,
2013-04-09 04:35:00,8.6,5.8,30.30,North,360,2.7,3.5,88,0.00,SCT,,0.00,WeatherDisplay:10.37,2013-04-09 10:35:00,
2013-04-09 04:40:00,8.6,5.8,30.30,North,360,2.7,2.7,88,0.00,SCT,,0.00,WeatherDisplay:10.37,2013-04-09 10:40:00,
2013-04-09 04:45:00,8.6,5.8,30.30,West,270,1.9,3.5,88,0.00,SCT,,0.00,WeatherDisplay:10.37,2013-04-09 10:45:00,
2013-04-09 04:50:00,8.4,5.6,30.30,NW,315,2.2,5.8,88,0.00,SCT,,0.00,WeatherDisplay:10.37,2013-04-09 10:50:00,
2013-04-09 04:55:00,8.4,5.6,30.30,WNW,292,2.8,3.7,88,0.00,SCT,,0.00,WeatherDisplay:10.37,2013-04-09 10:55:00,
2013-04-09 05:00:00,8.1,5.3,30.30,West,270,4.6,4.7,88,0.00,SCT,,0.00,WeatherDisplay:10.37,2013-04-09 11:00:00,
2013-04-09 05:05:00,8.1,5.3,30.31,WSW,248,3.0,4.6,88,0.00,CLR,,0.00,WeatherDisplay:10.37,2013-04-09 11:05:00,
2013-04-09 05:10:00,8.1,5.3,30.31,West,270,4.2,5.8,88,0.00,CLR,,0.00,WeatherDisplay:10.37,2013-04-09 11:10:00,
2013-04-09 05:15:00,7.9,5.1,30.31,West,270,4.5,5.8,88,0.00,CLR,,0.00,WeatherDisplay:10.37,2013-04-09 11:15:00,
2013-04-09 05:20:00,7.9,5.1,30.31,West,270,3.1,4.6,88,0.00,CLR,,0.00,WeatherDisplay:10.37,2013-04-09 11:20:00,
2013-04-09 05:25:00,7.9,5.1,30.31,WNW,292,4.2,4.6,88,0.00,CLR,,0.00,WeatherDisplay:10.37,2013-04-09 11:25:00,
2013-04-09 05:30:00,8.1,5.3,30.32,West,270,4.2,4.6,88,0.00,CLR,,0.00,WeatherDisplay:10.37,2013-04-09 11:30:00,
2013-04-09 05:35:00,8.4,5.6,30.32,WSW,248,4.9,5.8,88,0.00,CLR,,0.00,WeatherDisplay:10.37,2013-04-09 11:35:00,
2013-04-09 05:40:00,8.2,5.4,30.32,West,270,3.8,5.8,88,0.00,CLR,,0.00,WeatherDisplay:10.37,2013-04-09 11:40:00,
2013-04-09 05:45:00,8.1,5.3,30.32,West,270,3.6,3.6,88,0.00,CLR,,0.00,WeatherDisplay:10.37,2013-04-09 11:45:00,
2013-04-09 05:50:00,7.7,4.9,30.32,WNW,292,3.9,5.8,88,0.00,CLR,,0.00,WeatherDisplay:10.37,2013-04-09 11:50:00,
2013-04-09 05:55:00,7.7,4.9,30.33,West,270,4.4,5.8,88,0.00,CLR,,0.00,WeatherDisplay:10.37,2013-04-09 11:55:00,
2013-04-09 06:00:00,7.7,4.9,30.33,NNW,338,4.2,4.6,88,0.00,CLR,,0.00,WeatherDisplay:10.37,2013-04-09 12:00:00,
2013-04-09 06:05:00,7.9,5.1,30.33,SW,225,3.4,5.8,88,0.00,FEW,,0.00,WeatherDisplay:10.37,2013-04-09 12:05:00,
2013-04-09 06:10:00,7.9,5.1,30.33,West,270,7.5,9.2,88,0.00,FEW,,0.00,WeatherDisplay:10.37,2013-04-09 12:10:00,
2013-04-09 06:15:00,8.1,5.3,30.33,NW,315,4.4,5.8,88,0.00,FEW,,0.00,WeatherDisplay:10.37,2013-04-09 12:15:00,
2013-04-09 06:20:00,8.1,5.3,30.33,WNW,292,2.7,4.6,88,0.00,FEW,,0.00,WeatherDisplay:10.37,2013-04-09 12:20:00,
2013-04-09 06:25:00,8.2,5.4,30.33,West,270,3.9,8.3,88,0.00,BKN,,0.00,WeatherDisplay:10.37,2013-04-09 12:25:00,
2013-04-09 06:30:00,8.4,5.6,30.33,West,270,3.8,5.8,88,0.00,BKN,,0.00,WeatherDisplay:10.37,2013-04-09 12:30:00,
2013-04-09 06:35:00,8.4,5.6,30.33,West,270,5.6,6.9,88,0.00,SCT,,0.00,WeatherDisplay:10.37,2013-04-09 12:35:00,
2013-04-09 06:41:00,8.4,5.6,30.34,NNW,338,5.6,8.3,88,0.00,SCT,,0.00,WeatherDisplay:10.37,2013-04-09 12:41:00,
2013-04-09 06:46:00,8.6,5.8,30.34,West,270,5.6,7.8,88,0.00,SCT,,0.00,WeatherDisplay:10.37,2013-04-09 12:46:00,
2013-04-09 06:51:00,9.0,6.2,30.34,NNE,22,3.1,6.9,88,0.00,SCT,,0.00,WeatherDisplay:10.37,2013-04-09 12:51:00,
2013-04-09 06:56:00,9.3,6.2,30.34,WNW,292,3.9,5.8,87,0.00,SCT,,0.00,WeatherDisplay:10.37,2013-04-09 12:56:00,
2013-04-09 07:02:00,9.3,6.2,30.34,WNW,292,4.5,5.8,87,0.00,FEW,,0.00,WeatherDisplay:10.37,2013-04-09 13:02:00,
2013-04-09 07:07:00,9.5,6.4,30.33,WNW,292,3.0,3.5,87,0.00,FEW,,0.00,WeatherDisplay:10.37,2013-04-09 13:07:00,
2013-04-09 07:12:00,9.9,6.8,30.33,West,270,6.0,9.9,87,0.00,FEW,,0.00,WeatherDisplay:10.37,2013-04-09 13:12:00,
2013-04-09 07:17:00,10.0,6.6,30.33,NW,315,4.7,6.3,86,0.00,FEW,,0.00,WeatherDisplay:10.37,2013-04-09 13:17:00,
2013-04-09 07:22:00,10.2,6.8,30.33,North,360,4.0,4.7,86,0.00,FEW,,0.00,WeatherDisplay:10.37,2013-04-09 13:22:00,
2013-04-09 07:28:00,10.2,6.6,30.33,NNW,338,7.0,7.3,85,0.00,FEW,,0.00,WeatherDisplay:10.37,2013-04-09 13:28:00,
2013-04-09 07:33:00,10.6,7.0,30.33,North,360,4.7,5.8,85,0.00,FEW,,0.00,WeatherDisplay:10.37,2013-04-09 13:33:00,
2013-04-09 07:38:00,11.1,7.2,30.33,NNW,338,3.9,4.6,84,0.00,FEW,,0.00,WeatherDisplay:10.37,2013-04-09 13:38:00,
2013-04-09 07:43:00,11.3,7.4,30.33,West,270,3.0,4.6,84,0.00,FEW,,0.00,WeatherDisplay:10.37,2013-04-09 13:43:00,
2013-04-09 07:48:00,12.2,8.0,30.33,WNW,292,2.3,4.2,83,0.00,FEW,,0.00,WeatherDisplay:10.37,2013-04-09 13:48:00,
2013-04-09 07:53:00,11.8,7.4,30.34,NNE,22,4.1,6.9,82,0.00,FEW,,0.00,WeatherDisplay:10.37,2013-04-09 13:53:00,
2013-04-09 07:58:00,12.4,8.0,30.34,West,270,2.6,5.3,82,0.00,FEW,,0.00,WeatherDisplay:10.37,2013-04-09 13:58:00,
2013-04-09 08:03:00,12.6,7.9,30.34,NNE,22,4.6,5.8,81,0.00,CLR,,0.00,WeatherDisplay:10.37,2013-04-09 14:03:00,
2013-04-09 08:08:00,13.3,8.6,30.35,West,270,4.5,4.6,81,0.00,CLR,,0.00,WeatherDisplay:10.37,2013-04-09 14:08:00,
2013-04-09 08:13:00,13.1,8.4,30.35,NW,315,4.9,5.8,81,0.00,CLR,,0.00,WeatherDisplay:10.37,2013-04-09 14:13:00,
2013-04-09 08:18:00,13.1,8.4,30.35,NW,315,5.2,6.3,81,0.00,CLR,,0.00,WeatherDisplay:10.37,2013-04-09 14:18:00,
2013-04-09 08:23:00,13.5,8.5,30.35,WSW,248,5.0,5.8,80,0.00,CLR,,0.00,WeatherDisplay:10.37,2013-04-09 14:23:00,
2013-04-09 08:28:00,13.3,8.3,30.35,NW,315,4.7,6.9,80,0.00,CLR,,0.00,WeatherDisplay:10.37,2013-04-09 14:28:00,
2013-04-09 08:33:00,13.6,8.9,30.35,SE,135,6.1,8.3,81,0.00,CLR,,0.00,WeatherDisplay:10.37,2013-04-09 14:33:00,
2013-04-09 08:38:00,13.8,8.8,30.35,NNE,22,5.0,6.3,80,0.00,CLR,,0.00,WeatherDisplay:10.37,2013-04-09 14:38:00,
2013-04-09 08:43:00,13.8,8.5,30.35,West,270,6.2,6.9,79,0.00,CLR,,0.00,WeatherDisplay:10.37,2013-04-09 14:43:00,
2013-04-09 08:48:00,14.0,8.7,30.35,NNW,338,7.0,7.3,79,0.00,CLR,,0.00,WeatherDisplay:10.37,2013-04-09 14:48:00,
2013-04-09 08:53:00,13.8,8.5,30.35,WNW,292,5.7,6.9,79,0.00,SCT,,0.00,WeatherDisplay:10.37,2013-04-09 14:53:00,
2013-04-09 08:59:00,14.5,9.2,30.35,East,90,3.9,5.8,79,0.00,SCT,,0.00,WeatherDisplay:10.37,2013-04-09 14:59:00,
2013-04-09 09:04:00,15.3,9.7,30.35,NW,315,7.0,8.3,78,0.00,FEW,,0.00,WeatherDisplay:10.37,2013-04-09 15:04:00,
2013-04-09 09:09:00,15.3,9.7,30.35,NE,45,4.7,5.8,78,0.00,FEW,,0.00,WeatherDisplay:10.37,2013-04-09 15:09:00,
2013-04-09 09:14:00,15.6,10.0,30.35,WSW,248,4.0,8.8,78,0.00,FEW,,0.00,WeatherDisplay:10.37,2013-04-09 15:14:00,
2013-04-09 09:19:00,15.6,9.7,30.36,WSW,248,6.5,8.1,77,0.00,FEW,,0.00,WeatherDisplay:10.37,2013-04-09 15:19:00,
2013-04-09 09:24:00,15.6,9.4,30.36,WNW,292,7.0,8.3,76,0.00,-SN,,0.00,WeatherDisplay:10.37,2013-04-09 15:24:00,
2013-04-09 09:30:00,16.2,10.0,30.36,West,270,5.7,6.9,76,0.00,-SN,,0.00,WeatherDisplay:10.37,2013-04-09 15:30:00,
2013-04-09 09:35:00,16.7,10.1,30.36,NNW,338,4.8,5.8,75,0.00,-SN,,0.00,WeatherDisplay:10.37,2013-04-09 15:35:00,
2013-04-09 09:40:00,16.9,10.3,30.36,NE,45,3.6,5.8,75,0.00,-SN,,0.00,WeatherDisplay:10.37,2013-04-09 15:40:00,
2013-04-09 09:45:00,18.0,10.8,30.36,NW,315,5.2,7.3,73,0.00,-SN,,0.00,WeatherDisplay:10.37,2013-04-09 15:45:00,
2013-04-09 09:50:00,17.4,10.2,30.36,WSW,248,6.0,8.1,73,0.00,-SN,,0.00,WeatherDisplay:10.37,2013-04-09 15:50:00,
2013-04-09 09:55:00,18.0,11.1,30.36,WNW,292,4.8,5.8,74,0.00,-SN,,0.00,WeatherDisplay:10.37,2013-04-09 15:55:00,
2013-04-09 10:00:00,16.9,9.7,30.36,NNW,338,7.3,9.2,73,0.00,-SN,,0.00,WeatherDisplay:10.37,2013-04-09 16:00:00,
2013-04-09 10:05:00,17.6,10.7,30.36,NW,315,7.2,7.3,74,0.00,-SN,,0.00,WeatherDisplay:10.37,2013-04-09 16:05:00,
2013-04-09 10:10:00,17.6,10.7,30.36,NW,315,7.3,7.3,74,0.00,-SN,,0.00,WeatherDisplay:10.37,2013-04-09 16:10:00,
2013-04-09 10:15:00,18.0,10.2,30.36,WNW,292,6.7,8.1,71,0.00,-SN,,0.00,WeatherDisplay:10.37,2013-04-09 16:15:00,
2013-04-09 10:20:00,18.5,10.7,30.36,NNW,338,5.6,9.2,71,0.00,-SN,,0.00,WeatherDisplay:10.37,2013-04-09 16:20:00,
2013-04-09 10:25:00,18.9,11.0,30.36,NW,315,7.0,10.4,71,0.00,-SN,,0.00,WeatherDisplay:10.37,2013-04-09 16:25:00,
2013-04-09 10:30:00,18.1,10.3,30.36,NW,315,7.7,9.2,71,0.00,-SN,,0.00,WeatherDisplay:10.37,2013-04-09 16:30:00,
2013-04-09 10:36:00,19.6,11.7,30.36,NE,45,4.1,6.9,71,0.00,SCT,,0.00,WeatherDisplay:10.37,2013-04-09 16:36:00,
2013-04-09 10:41:00,20.3,11.7,30.36,West,270,4.7,6.3,69,0.00,SCT,,0.00,WeatherDisplay:10.37,2013-04-09 16:41:00,
2013-04-09 10:46:00,19.2,10.7,30.36,NW,315,6.7,9.2,69,0.00,SCT,,0.00,WeatherDisplay:10.37,2013-04-09 16:46:00,
2013-04-09 10:51:00,19.6,10.4,30.36,NE,45,6.9,9.2,67,0.00,SCT,,0.00,WeatherDisplay:10.37,2013-04-09 16:51:00,
2013-04-09 10:56:00,20.7,11.1,30.36,WNW,292,5.8,8.3,66,0.00,SCT,,0.00,WeatherDisplay:10.37,2013-04-09 16:56:00,
2013-04-09 11:01:00,21.4,12.1,30.36,West,270,8.3,10.4,67,0.00,SCT,,0.00,WeatherDisplay:10.37,2013-04-09 17:01:00,
2013-04-09 11:06:00,22.1,12.5,30.36,NNW,338,4.2,6.8,66,0.00,CLR,,0.00,WeatherDisplay:10.37,2013-04-09 17:06:00,
2013-04-09 11:11:00,21.2,11.3,30.36,WNW,292,8.8,10.4,65,0.00,CLR,,0.00,WeatherDisplay:10.37,2013-04-09 17:11:00,
2013-04-09 11:16:00,21.0,10.7,30.36,NNE,22,6.8,9.4,64,0.00,CLR,,0.00,WeatherDisplay:10.37,2013-04-09 17:16:00,
2013-04-09 11:21:00,21.6,11.3,30.36,NW,315,4.2,5.8,64,0.00,CLR,,0.00,WeatherDisplay:10.37,2013-04-09 17:21:00,
2013-04-09 11:26:00,21.9,11.6,30.36,NE,45,4.8,5.8,64,0.00,CLR,,0.00,WeatherDisplay:10.37,2013-04-09 17:26:00,
2013-04-09 11:31:00,23.0,12.3,30.37,WNW,292,6.6,9.2,63,0.00,CLR,,0.00,WeatherDisplay:10.37,2013-04-09 17:31:00,
2013-04-09 11:36:00,22.6,11.5,30.37,NNW,338,5.7,10.4,62,0.00,CLR,,0.00,WeatherDisplay:10.37,2013-04-09 17:36:00,
2013-04-09 11:41:00,22.8,11.7,30.36,WNW,292,6.2,9.4,62,0.00,CLR,,0.00,WeatherDisplay:10.37,2013-04-09 17:41:00,
2013-04-09 11:46:00,22.1,11.4,30.36,East,90,4.6,6.9,63,0.00,CLR,,0.00,WeatherDisplay:10.37,2013-04-09 17:46:00,
2013-04-09 11:51:00,21.7,12.4,30.36,NW,315,4.0,9.2,67,0.00,CLR,,0.00,WeatherDisplay:10.37,2013-04-09 17:51:00,
2013-04-09 11:56:00,21.2,11.9,30.36,WNW,292,7.7,9.2,67,0.00,CLR,,0.00,WeatherDisplay:10.37,2013-04-09 17:56:00,
2013-04-09 12:01:00,21.7,11.7,30.36,West,270,6.9,9.2,65,0.00,CLR,,0.00,WeatherDisplay:10.37,2013-04-09 18:01:00,
2013-04-09 12:07:00,22.1,12.1,30.35,WSW,248,6.8,6.9,65,0.00,CLR,,0.00,WeatherDisplay:10.37,2013-04-09 18:07:00,
2013-04-09 12:12:00,23.0,12.6,30.35,NNE,22,5.0,6.9,64,0.00,CLR,,0.00,WeatherDisplay:10.37,2013-04-09 18:12:00,
2013-04-09 12:17:00,21.9,11.2,30.36,WNW,292,5.7,6.9,63,0.00,CLR,,0.00,WeatherDisplay:10.37,2013-04-09 18:17:00,
2013-04-09 12:22:00,23.0,12.3,30.36,WNW,292,5.5,6.9,63,0.00,CLR,,0.00,WeatherDisplay:10.37,2013-04-09 18:22:00,
2013-04-09 12:27:00,23.2,12.8,30.36,NNW,338,7.8,11.9,64,0.00,CLR,,0.00,WeatherDisplay:10.37,2013-04-09 18:27:00,
2013-04-09 12:32:00,23.0,11.9,30.35,West,270,7.4,9.2,62,0.00,CLR,,0.00,WeatherDisplay:10.37,2013-04-09 18:32:00,
2013-04-09 12:37:00,23.0,12.3,30.35,WNW,292,7.3,10.4,63,0.00,CLR,,0.00,WeatherDisplay:10.37,2013-04-09 18:37:00,
2013-04-09 12:42:00,23.7,12.9,30.35,NNW,338,5.5,6.9,63,0.00,CLR,,0.00,WeatherDisplay:10.37,2013-04-09 18:42:00,
2013-04-09 12:47:00,23.2,12.5,30.35,WNW,292,6.2,6.9,63,0.00,CLR,,0.00,WeatherDisplay:10.37,2013-04-09 18:47:00,
2013-04-09 12:52:00,23.2,12.5,30.35,WSW,248,8.2,10.4,63,0.00,CLR,,0.00,WeatherDisplay:10.37,2013-04-09 18:52:00,
2013-04-09 12:57:00,23.4,12.3,30.35,NNW,338,5.2,6.8,62,0.00,CLR,,0.00,WeatherDisplay:10.37,2013-04-09 18:57:00,
2013-04-09 13:03:00,24.6,13.8,30.35,NNE,22,4.6,5.8,63,0.00,CLR,,0.00,WeatherDisplay:10.37,2013-04-09 19:03:00,
2013-04-09 13:08:00,23.7,12.2,30.34,WSW,248,6.9,8.1,61,0.00,CLR,,0.00,WeatherDisplay:10.37,2013-04-09 19:08:00,
2013-04-09 13:13:00,25.0,13.4,30.34,NE,45,5.4,7.3,61,0.00,CLR,,0.00,WeatherDisplay:10.37,2013-04-09 19:13:00,
2013-04-09 13:18:00,24.1,11.8,30.34,WNW,292,7.6,9.2,59,0.00,CLR,,0.00,WeatherDisplay:10.37,2013-04-09 19:18:00,
2013-04-09 13:23:00,24.1,12.6,30.34,NNE,22,6.2,7.3,61,0.00,CLR,,0.00,WeatherDisplay:10.37,2013-04-09 19:23:00,
2013-04-09 13:28:00,24.6,12.7,30.34,NNW,338,7.7,12.7,60,0.00,CLR,,0.00,WeatherDisplay:10.37,2013-04-09 19:28:00,
2013-04-09 13:33:00,23.9,12.8,30.34,NNW,338,4.9,9.2,62,0.00,CLR,,0.00,WeatherDisplay:10.37,2013-04-09 19:33:00,
2013-04-09 13:38:00,24.1,12.2,30.34,NNW,338,9.4,9.4,60,0.00,CLR,,0.00,WeatherDisplay:10.37,2013-04-09 19:38:00,
2013-04-09 13:43:00,25.3,13.7,30.33,NW,315,6.3,11.5,61,0.00,CLR,,0.00,WeatherDisplay:10.37,2013-04-09 19:43:00,
2013-04-09 13:48:00,25.2,13.2,30.33,WNW,292,9.2,12.7,60,0.00,CLR,,0.00,WeatherDisplay:10.37,2013-04-09 19:48:00,
2013-04-09 13:53:00,25.3,13.3,30.33,East,90,11.0,11.5,60,0.00,CLR,,0.00,WeatherDisplay:10.37,2013-04-09 19:53:00,
2013-04-09 13:58:00,25.3,13.3,30.33,SE,135,8.6,11.5,60,0.00,CLR,,0.00,WeatherDisplay:10.37,2013-04-09 19:58:00,
2013-04-09 14:03:00,25.7,13.7,30.33,NE,45,8.5,10.4,60,0.00,CLR,,0.00,WeatherDisplay:10.37,2013-04-09 20:03:00,
2013-04-09 14:08:00,25.5,13.5,30.33,NW,315,7.0,10.4,60,0.00,CLR,,0.00,WeatherDisplay:10.37,2013-04-09 20:08:00,
2013-04-09 14:13:00,26.2,14.2,30.33,SW,225,5.9,8.1,60,0.00,CLR,,0.00,WeatherDisplay:10.37,2013-04-09 20:13:00,
2013-04-09 14:18:00,26.6,14.2,30.33,WNW,292,5.6,8.3,59,0.00,CLR,,0.00,WeatherDisplay:10.37,2013-04-09 20:18:00,
2013-04-09 14:23:00,26.1,13.3,30.33,NNW,338,7.2,11.5,58,0.00,CLR,,0.00,WeatherDisplay:10.37,2013-04-09 20:23:00,
2013-04-09 14:28:00,26.1,13.7,30.33,West,270,4.8,9.2,59,0.00,CLR,,0.00,WeatherDisplay:10.37,2013-04-09 20:28:00,
2013-04-09 14:33:00,26.8,14.4,30.33,WSW,248,7.1,7.3,59,0.00,CLR,,0.00,WeatherDisplay:10.37,2013-04-09 20:33:00,
2013-04-09 14:38:00,26.8,13.6,30.33,ENE,68,8.7,8.7,57,0.00,CLR,,0.00,WeatherDisplay:10.37,2013-04-09 20:38:00,
2013-04-09 14:44:00,27.1,13.9,30.33,NNW,338,6.5,9.2,57,0.00,CLR,,0.00,WeatherDisplay:10.37,2013-04-09 20:44:00,
2013-04-09 14:48:00,27.3,14.5,30.33,NNE,22,4.9,5.8,58,0.00,CLR,,0.00,WeatherDisplay:10.37,2013-04-09 20:48:00,
2013-04-09 14:54:00,27.1,14.3,30.33,North,360,6.1,6.8,58,0.00,CLR,,0.00,WeatherDisplay:10.37,2013-04-09 20:54:00,
2013-04-09 14:59:00,28.2,14.9,30.33,North,360,6.7,8.3,57,0.00,CLR,,0.00,WeatherDisplay:10.37,2013-04-09 20:59:00,
2013-04-09 15:04:00,27.7,14.4,30.33,ENE,68,7.3,7.3,57,0.00,SCT,,0.00,WeatherDisplay:10.37,2013-04-09 21:04:00,
2013-04-09 15:09:00,28.0,15.5,30.33,NE,45,5.6,8.1,59,0.00,SCT,,0.00,WeatherDisplay:10.37,2013-04-09 21:09:00,
2013-04-09 15:14:00,27.0,14.6,30.33,West,270,8.8,10.4,59,0.00,SCT,,0.00,WeatherDisplay:10.37,2013-04-09 21:14:00,
2013-04-09 15:19:00,27.1,14.7,30.32,NNE,22,8.1,9.2,59,0.00,SCT,,0.00,WeatherDisplay:10.37,2013-04-09 21:19:00,
2013-04-09 15:24:00,27.7,15.2,30.32,WNW,292,5.3,10.4,59,0.00,SCT,,0.00,WeatherDisplay:10.37,2013-04-09 21:24:00,
2013-04-09 15:29:00,27.5,15.0,30.31,NE,45,11.3,15.0,59,0.00,SCT,,0.00,WeatherDisplay:10.37,2013-04-09 21:29:00,
2013-04-09 15:34:00,28.0,15.1,30.31,NNW,338,7.5,9.2,58,0.00,SCT,,0.00,WeatherDisplay:10.37,2013-04-09 21:34:00,
2013-04-09 15:39:00,28.2,15.7,30.31,NNW,338,7.9,8.3,59,0.00,SCT,,0.00,WeatherDisplay:10.37,2013-04-09 21:39:00,
2013-04-09 15:45:00,28.0,15.5,30.31,NNE,22,8.2,10.4,59,0.00,SCT,,0.00,WeatherDisplay:10.37,2013-04-09 21:45:00,
2013-04-09 15:50:00,28.4,16.3,30.31,WNW,292,7.7,9.2,60,0.00,SCT,,0.00,WeatherDisplay:10.37,2013-04-09 21:50:00,
2013-04-09 15:55:00,27.9,15.8,30.31,NW,315,7.1,8.1,60,0.00,SCT,,0.00,WeatherDisplay:10.37,2013-04-09 21:55:00,
2013-04-09 16:00:00,27.9,16.2,30.31,NW,315,7.1,8.3,61,0.00,SCT,,0.00,WeatherDisplay:10.37,2013-04-09 22:00:00,
2013-04-09 16:05:00,28.9,17.5,30.29,ESE,112,4.4,5.8,62,0.00,SCT,,0.00,WeatherDisplay:10.37,2013-04-09 22:05:00,
2013-04-09 16:10:00,28.0,16.6,30.29,North,360,7.3,9.4,62,0.00,SCT,,0.00,WeatherDisplay:10.37,2013-04-09 22:10:00,
2013-04-09 16:15:00,27.9,16.6,30.29,NNW,338,10.4,12.7,62,0.00,SCT,,0.00,WeatherDisplay:10.37,2013-04-09 22:15:00,
2013-04-09 16:20:00,28.4,17.4,30.29,WNW,292,9.1,12.4,63,0.00,SCT,,0.00,WeatherDisplay:10.37,2013-04-09 22:20:00,
2013-04-09 16:25:00,28.2,17.2,30.29,NW,315,9.1,10.4,63,0.00,SCT,,0.00,WeatherDisplay:10.37,2013-04-09 22:25:00,
2013-04-09 16:30:00,29.1,17.7,30.29,North,360,6.8,9.2,62,0.00,SCT,,0.00,WeatherDisplay:10.37,2013-04-09 22:30:00,
2013-04-09 16:35:00,29.1,17.7,30.29,NW,315,7.7,10.4,62,0.00,SCT,,0.00,WeatherDisplay:10.37,2013-04-09 22:35:00,
2013-04-09 16:40:00,28.8,17.4,30.29,NW,315,8.3,9.2,62,0.00,SCT,,0.00,WeatherDisplay:10.37,2013-04-09 22:40:00,
2013-04-09 16:45:00,28.9,17.5,30.29,NW,315,9.2,10.4,62,0.00,SCT,,0.00,WeatherDisplay:10.37,2013-04-09 22:45:00,
2013-04-09 16:50:00,29.1,17.7,30.29,WNW,292,10.7,13.0,62,0.00,SCT,,0.00,WeatherDisplay:10.37,2013-04-09 22:50:00,
2013-04-09 16:56:00,29.1,17.7,30.29,WNW,292,7.9,9.2,62,0.00,SCT,,0.00,WeatherDisplay:10.37,2013-04-09 22:56:00,
2013-04-09 17:01:00,29.1,17.7,30.29,NNE,22,8.7,10.4,62,0.00,SCT,,0.00,WeatherDisplay:10.37,2013-04-09 23:01:00,
2013-04-09 17:06:00,28.9,17.1,30.29,NNE,22,8.0,13.8,61,0.00,SCT,,0.00,WeatherDisplay:10.37,2013-04-09 23:06:00,
2013-04-09 17:11:00,29.3,17.9,30.29,NE,45,6.2,6.9,62,0.00,SCT,,0.00,WeatherDisplay:10.37,2013-04-09 23:11:00,
2013-04-09 17:16:00,29.7,17.5,30.30,NE,45,5.8,8.1,60,0.00,SCT,,0.00,WeatherDisplay:10.37,2013-04-09 23:16:00,
2013-04-09 17:21:00,30.2,17.6,30.30,NNW,338,4.1,5.8,59,0.00,SCT,,0.00,WeatherDisplay:10.37,2013-04-09 23:21:00,
2013-04-09 17:26:00,29.5,16.9,30.30,East,90,8.5,10.4,59,0.00,BKN,,0.00,WeatherDisplay:10.37,2013-04-09 23:26:00,
2013-04-09 17:31:00,29.3,17.1,30.29,NW,315,6.5,6.9,60,0.00,BKN,,0.00,WeatherDisplay:10.37,2013-04-09 23:31:00,
2013-04-09 17:36:00,29.1,17.3,30.29,NE,45,6.1,10.9,61,0.00,BKN,,0.00,WeatherDisplay:10.37,2013-04-09 23:36:00,
2013-04-09 17:41:00,29.1,17.3,30.29,NE,45,6.5,6.9,61,0.00,BKN,,0.00,WeatherDisplay:10.37,2013-04-09 23:41:00,
2013-04-09 17:46:00,29.5,17.7,30.29,North,360,6.3,6.9,61,0.00,BKN,,0.00,WeatherDisplay:10.37,2013-04-09 23:46:00,
2013-04-09 17:51:00,29.3,17.9,30.29,NNE,22,7.8,8.3,62,0.00,BKN,,0.00,WeatherDisplay:10.37,2013-04-09 23:51:00,
2013-04-09 17:56:00,29.1,17.7,30.29,NNE,22,6.1,6.9,62,0.00,BKN,,0.00,WeatherDisplay:10.37,2013-04-09 23:56:00,
2013-04-09 18:01:00,29.3,18.3,30.29,West,270,3.6,8.1,63,0.00,CLR,,0.00,WeatherDisplay:10.37,2013-04-10 00:01:00,
2013-04-09 18:06:00,29.5,18.8,30.29,NNE,22,6.4,8.1,64,0.00,CLR,,0.00,WeatherDisplay:10.37,2013-04-10 00:06:00,
2013-04-09 18:12:00,29.1,18.4,30.29,NE,45,6.1,8.1,64,0.00,CLR,,0.00,WeatherDisplay:10.37,2013-04-10 00:12:00,
2013-04-09 18:17:00,29.1,18.4,30.28,North,360,4.7,5.8,64,0.00,CLR,,0.00,WeatherDisplay:10.37,2013-04-10 00:17:00,
2013-04-09 18:22:00,29.1,18.1,30.28,ENE,68,3.8,4.6,63,0.00,CLR,,0.00,WeatherDisplay:10.37,2013-04-10 00:22:00,
2013-04-09 18:27:00,29.1,18.1,30.28,NNW,338,6.9,9.2,63,0.00,CLR,,0.00,WeatherDisplay:10.37,2013-04-10 00:27:00,
2013-04-09 18:32:00,29.1,18.4,30.28,NNW,338,4.2,6.8,64,0.00,CLR,,0.00,WeatherDisplay:10.37,2013-04-10 00:32:00,
2013-04-09 18:37:00,28.9,18.2,30.28,NNE,22,4.0,5.8,64,0.00,CLR,,0.00,WeatherDisplay:10.37,2013-04-10 00:37:00,
2013-04-09 18:42:00,28.9,18.2,30.28,ESE,112,4.5,5.8,64,0.00,CLR,,0.00,WeatherDisplay:10.37,2013-04-10 00:42:00,
2013-04-09 18:47:00,28.9,18.6,30.28,NNE,22,5.5,7.8,65,0.00,CLR,,0.00,WeatherDisplay:10.37,2013-04-10 00:47:00,
2013-04-09 18:52:00,28.8,18.9,30.27,West,270,3.7,5.8,66,0.00,CLR,,0.00,WeatherDisplay:10.37,2013-04-10 00:52:00,
2013-04-09 18:57:00,28.8,18.9,30.27,North,360,4.0,4.6,66,0.00,CLR,,0.00,WeatherDisplay:10.37,2013-04-10 00:57:00,
2013-04-09 19:02:00,28.8,19.2,30.27,NE,45,5.0,6.9,67,0.00,CLR,,0.00,WeatherDisplay:10.37,2013-04-10 01:02:00,
2013-04-09 19:07:00,28.8,19.2,30.27,North,360,4.6,5.8,67,0.00,CLR,,0.00,WeatherDisplay:10.37,2013-04-10 01:07:00,
2013-04-09 19:12:00,28.6,19.4,30.27,NNE,22,7.7,8.3,68,0.00,CLR,,0.00,WeatherDisplay:10.37,2013-04-10 01:12:00,
2013-04-09 19:17:00,28.2,19.3,30.27,NNE,22,6.5,8.1,69,0.00,CLR,,0.00,WeatherDisplay:10.37,2013-04-10 01:17:00,
2013-04-09 19:22:00,28.0,19.5,30.27,NNE,22,6.4,9.2,70,0.00,CLR,,0.00,WeatherDisplay:10.37,2013-04-10 01:22:00,
2013-04-09 19:28:00,27.9,19.7,30.27,NE,45,5.4,7.3,71,0.00,CLR,,0.00,WeatherDisplay:10.37,2013-04-10 01:28:00,
2013-04-09 19:33:00,27.9,19.7,30.27,NNE,22,3.3,5.8,71,0.00,CLR,,0.00,WeatherDisplay:10.37,2013-04-10 01:33:00,
2013-04-09 19:38:00,27.9,20.0,30.27,NE,45,2.6,3.5,72,0.00,CLR,,0.00,WeatherDisplay:10.37,2013-04-10 01:38:00,
2013-04-09 19:43:00,27.7,20.2,30.28,NE,45,3.0,4.6,73,0.00,CLR,,0.00,WeatherDisplay:10.37,2013-04-10 01:43:00,
2013-04-09 19:48:00,27.3,19.8,30.28,NE,45,4.8,6.3,73,0.00,CLR,,0.00,WeatherDisplay:10.37,2013-04-10 01:48:00,
2013-04-09 19:53:00,27.1,19.6,30.29,NW,315,5.3,5.8,73,0.00,CLR,,0.00,WeatherDisplay:10.37,2013-04-10 01:53:00,
2013-04-09 19:58:00,27.0,19.8,30.29,NE,45,2.8,5.8,74,0.00,CLR,,0.00,WeatherDisplay:10.37,2013-04-10 01:58:00,
2013-04-09 20:03:00,27.0,19.8,30.29,NE,45,4.4,5.8,74,0.00,FEW,,0.00,WeatherDisplay:10.37,2013-04-10 02:03:00,
2013-04-09 20:08:00,26.8,19.6,30.29,NNW,338,2.8,3.5,74,0.00,FEW,,0.00,WeatherDisplay:10.37,2013-04-10 02:08:00,
2013-04-09 20:13:00,26.6,19.4,30.29,ENE,68,4.9,6.9,74,0.00,FEW,,0.00,WeatherDisplay:10.37,2013-04-10 02:13:00,
2013-04-09 20:18:00,26.6,19.7,30.29,NE,45,4.8,5.8,75,0.00,FEW,,0.00,WeatherDisplay:10.37,2013-04-10 02:18:00,
2013-04-09 20:23:00,26.4,19.5,30.29,NE,45,5.1,5.8,75,0.00,FEW,,0.00,WeatherDisplay:10.37,2013-04-10 02:23:00,
2013-04-09 20:28:00,26.2,19.4,30.29,NE,45,3.3,3.5,75,0.00,FEW,,0.00,WeatherDisplay:10.37,2013-04-10 02:28:00,
2013-04-09 20:33:00,26.1,19.3,30.29,NE,45,2.4,2.4,75,0.00,FEW,,0.00,WeatherDisplay:10.37,2013-04-10 02:33:00,
2013-04-09 20:38:00,26.1,19.6,30.29,NE,45,2.3,2.7,76,0.00,FEW,,0.00,WeatherDisplay:10.37,2013-04-10 02:38:00,
2013-04-09 20:43:00,25.9,19.4,30.30,NE,45,3.7,6.3,76,0.00,FEW,,0.00,WeatherDisplay:10.37,2013-04-10 02:43:00,
2013-04-09 20:48:00,25.9,19.4,30.30,NNE,22,4.2,4.6,76,0.00,FEW,,0.00,WeatherDisplay:10.37,2013-04-10 02:48:00,
2013-04-09 20:53:00,25.7,19.5,30.29,NE,45,3.3,5.8,77,0.00,FEW,,0.00,WeatherDisplay:10.37,2013-04-10 02:53:00,
2013-04-09 20:58:00,25.5,19.3,30.29,NE,45,1.7,3.5,77,0.00,FEW,,0.00,WeatherDisplay:10.37,2013-04-10 02:58:00,
2013-04-09 21:03:00,25.3,19.1,30.30,NNE,22,1.7,2.3,77,0.00,FEW,,0.00,WeatherDisplay:10.37,2013-04-10 03:03:00,
2013-04-09 21:08:00,25.2,19.0,30.30,WNW,292,2.2,3.5,77,0.00,FEW,,0.00,WeatherDisplay:10.37,2013-04-10 03:08:00,
2013-04-09 21:13:00,25.0,19.1,30.30,NE,45,3.5,4.6,78,0.00,FEW,,0.00,WeatherDisplay:10.37,2013-04-10 03:13:00,
2013-04-09 21:18:00,25.0,19.1,30.30,WNW,292,2.4,3.5,78,0.00,FEW,,0.00,WeatherDisplay:10.37,2013-04-10 03:18:00,
2013-04-09 21:23:00,25.0,19.1,30.30,NNE,22,3.3,4.6,78,0.00,FEW,,0.00,WeatherDisplay:10.37,2013-04-10 03:23:00,
2013-04-09 21:28:00,25.0,19.1,30.30,NNE,22,2.6,4.6,78,0.00,FEW,,0.00,WeatherDisplay:10.37,2013-04-10 03:28:00,
2013-04-09 21:33:00,25.0,19.1,30.30,ENE,68,3.5,4.6,78,0.00,FEW,,0.00,WeatherDisplay:10.37,2013-04-10 03:33:00,
2013-04-09 21:38:00,25.0,19.1,30.30,NW,315,3.5,3.5,78,0.00,FEW,,0.00,WeatherDisplay:10.37,2013-04-10 03:38:00,
2013-04-09 21:43:00,25.0,19.1,30.30,NE,45,4.1,5.8,78,0.00,FEW,,0.00,WeatherDisplay:10.37,2013-04-10 03:43:00,
2013-04-09 21:48:00,25.0,18.8,30.30,NE,45,3.6,4.6,77,0.00,FEW,,0.00,WeatherDisplay:10.37,2013-04-10 03:48:00,
2013-04-09 21:53:00,25.0,19.1,30.30,ESE,112,3.1,3.5,78,0.00,FEW,,0.00,WeatherDisplay:10.37,2013-04-10 03:53:00,
2013-04-09 21:58:00,24.8,18.6,30.30,ENE,68,3.4,4.6,77,0.00,FEW,,0.00,WeatherDisplay:10.37,2013-04-10 03:58:00,
2013-04-09 22:00:00,24.8,18.6,30.30,NNE,22,1.8,2.3,77,0.00,FEW,,0.00,WeatherDisplay:10.37,2013-04-10 04:00:00,
2013-04-09 22:05:00,24.6,18.4,30.30,NE,45,4.7,5.8,77,0.00,CLR,,0.00,WeatherDisplay:10.37,2013-04-10 04:05:00,
2013-04-09 22:10:00,24.4,18.5,30.30,NNE,22,2.5,3.5,78,0.00,CLR,,0.00,WeatherDisplay:10.37,2013-04-10 04:10:00,
2013-04-09 22:15:00,24.3,18.4,30.30,NE,45,2.8,3.5,78,0.00,CLR,,0.00,WeatherDisplay:10.37,2013-04-10 04:15:00,
2013-04-09 22:21:00,24.1,18.2,30.30,NNE,22,4.4,5.8,78,0.00,CLR,,0.00,WeatherDisplay:10.37,2013-04-10 04:21:00,
2013-04-09 22:26:00,23.9,18.0,30.30,ENE,68,3.9,4.6,78,0.00,CLR,,0.00,WeatherDisplay:10.37,2013-04-10 04:26:00,
2013-04-09 22:31:00,23.7,18.1,30.30,ENE,68,2.5,3.5,79,0.00,CLR,,0.00,WeatherDisplay:10.37,2013-04-10 04:31:00,
2013-04-09 22:36:00,23.5,17.9,30.30,NNE,22,2.0,3.5,79,0.00,CLR,,0.00,WeatherDisplay:10.37,2013-04-10 04:36:00,
2013-04-09 22:41:00,23.4,17.8,30.30,NW,315,2.0,2.3,79,0.00,CLR,,0.00,WeatherDisplay:10.37,2013-04-10 04:41:00,
2013-04-09 22:47:00,23.2,17.9,30.30,North,360,2.6,2.7,80,0.00,CLR,,0.00,WeatherDisplay:10.37,2013-04-10 04:47:00,
2013-04-09 22:52:00,23.0,18.0,30.30,NNE,22,0.0,0.0,81,0.00,CLR,,0.00,WeatherDisplay:10.37,2013-04-10 04:52:00,
2013-04-09 22:57:00,22.8,17.8,30.30,ESE,112,0.0,0.0,81,0.00,CLR,,0.00,WeatherDisplay:10.37,2013-04-10 04:57:00,
2013-04-09 23:02:00,22.5,17.8,30.30,ESE,112,0.0,0.0,82,0.00,CLR,,0.00,WeatherDisplay:10.37,2013-04-10 05:02:00,
2013-04-09 23:07:00,22.3,17.6,30.31,ESE,112,0.0,0.0,82,0.00,CLR,,0.00,WeatherDisplay:10.37,2013-04-10 05:07:00,
2013-04-09 23:12:00,22.1,17.4,30.31,ESE,112,0.0,0.0,82,0.00,CLR,,0.00,WeatherDisplay:10.37,2013-04-10 05:12:00,
2013-04-09 23:18:00,21.9,17.5,30.31,ESE,112,0.0,0.0,83,0.00,CLR,,0.00,WeatherDisplay:10.37,2013-04-10 05:18:00,
2013-04-09 23:23:00,21.7,17.6,30.31,NW,315,0.0,0.0,84,0.00,CLR,,0.00,WeatherDisplay:10.37,2013-04-10 05:23:00,
2013-04-09 23:28:00,21.9,17.8,30.31,WNW,292,1.7,2.3,84,0.00,CLR,,0.00,WeatherDisplay:10.37,2013-04-10 05:28:00,
2013-04-09 23:33:00,21.9,17.8,30.31,SW,225,2.2,2.3,84,0.00,CLR,,0.00,WeatherDisplay:10.37,2013-04-10 05:33:00,
2013-04-09 23:38:00,21.7,18.2,30.31,SSE,158,0.0,1.1,86,0.00,CLR,,0.00,WeatherDisplay:10.37,2013-04-10 05:38:00,
2013-04-09 23:43:00,21.7,18.4,30.30,SSE,158,0.0,0.0,87,0.00,CLR,,0.00,WeatherDisplay:10.37,2013-04-10 05:43:00,
2013-04-09 23:48:00,21.6,18.1,30.30,West,270,0.0,0.0,86,0.00,CLR,,0.00,WeatherDisplay:10.37,2013-04-10 05:48:00,
2013-04-09 23:53:00,21.4,17.9,30.30,WNW,292,0.0,0.0,86,0.00,CLR,,0.00,WeatherDisplay:10.37,2013-04-10 05:53:00,
2013-04-09 23:58:00,21.2,17.9,30.30,WNW,292,0.9,1.7,87,0.00,CLR,,0.00,WeatherDisplay:10.37,2013-04-10 05:58:00,